Location: Chojeczno Cesarskie
(52.2303°N, 22.0325°E)
Time: 06:24:34
(UTC+00:00)

Daily predictions for brighter satellites

Satellite Brightness Start Highest point End
(mag) Time Altitude Azimuth Time Altitude Azimuth Time Altitude Azimuth
Cosmos 2082 Rocket 2.2 18:24:16 10° SSW 18:29:53 65° ESE 18:35:31 10° NE
Cosmos 1470 Rocket 4.4 18:27:17 10° SSE 18:31:09 31° E 18:35:02 10° NNE
MetOp-A 4.3 18:25:54 10° SSE 18:31:16 79° WSW 18:36:39 10° NNW
Sich 1 3.1 18:27:35 10° S 18:32:02 90° WSW 18:36:31 10° N
SL-27 R/B 4.4 18:32:16 10° ESE 18:33:07 11° E 18:33:59 10° E
MONITOR-E 3.9 18:32:24 10° S 18:34:44 63° WSW 18:37:05 10° NNW
Cosmos 2322 Rocket 2.8 18:30:05 10° NNW 18:35:34 46° NE 18:41:04 10° ESE
COSMOS 2406 4.0 18:30:44 10° SW 18:36:24 60° NW 18:42:05 10° NNE
Cosmos 2278 4.4 18:31:14 10° NW 18:36:50 56° WSW 18:42:22 10° S
H-2A R/B 4.0 18:36:13 10° SSW 18:40:34 29° W 18:44:53 10° NW
ERS-1 Rocket 4.3 18:36:52 10° ESE 18:40:52 25° ENE 18:44:53 10° N
Meteor 1-4 Rocket 2.8 18:38:35 10° NNW 18:42:02 66° W 18:45:28 10° S
USA 186 3.9 18:40:35 10° SW 18:42:10 17° W 18:43:47 10° NW
Cosmos 1862 Rocket 3.6 18:38:19 10° N 18:42:48 75° ENE 18:47:13 10° SSE
Cosmos 2360 Rocket 3.2 18:39:28 10° NNW 18:44:39 34° NE 18:49:47 10° ESE
Cosmos 841 Rocket 4.3 18:40:04 10° NNW 18:44:57 38° NE 18:49:50 10° ESE
ATLAS 3B R/B 4.0 18:41:27 10° SE 18:45:16 16° ESE 18:49:05 10° ENE
Cosmos 676 Rocket 4.0 18:41:48 10° SSW 18:47:05 67° ESE 18:52:24 10° NNE
SPOT 1/Viking Rocket 4.3 18:43:14 10° SE 18:48:02 38° ENE 18:52:51 10° N
USA 32 4.3 18:44:06 10° SSE 18:49:06 49° E 18:54:08 10° NNE
USA 234 3.6 18:43:04 10° E 18:49:32 67° NNE 18:56:02 10° WNW
Terra 3.5 18:49:26 10° ESE 18:52:51 20° ENE 18:56:17 10° N
Cosmos 1934 Rocket 4.0 18:47:13 10° S 18:53:33 77° E 18:59:56 10° NNE
Cosmos 1980 Rocket 3.1 18:48:16 10° NW 18:53:41 47° WSW 18:59:02 10° S
Cosmos 468 Rocket 4.1 18:48:44 10° NNW 18:54:06 79° ENE 18:59:22 10° SSE
Cosmos 1238 Rocket 2.9 18:52:11 10° SSE 18:54:52 33° E 18:57:42 10° NNE
USA 276 2.8 18:52:18 10° W 18:55:18 40° SSW 18:57:49 13° SE
X-37B 2.4 18:53:49 10° WSW 18:56:09 19° S 18:58:07 12° SSE
CZ-2C R/B 3.7 18:52:14 10° NNE 18:56:50 70° ESE 19:01:19 10° S
IGS 5A 3.9 18:53:12 10° SE 18:57:08 45° ENE 19:01:08 10° N
Cosmos 44 3.4 18:52:37 10° NW 18:57:29 75° NE 19:02:11 12° SE
Lacrosse 5 2.4 18:53:02 10° WNW 18:57:59 52° SW 19:02:39 11° SE
Resurs 01 Rocket 1.7 18:58:33 10° SSE 19:02:59 80° WSW 19:07:28 10° NNW
Cosmos 1833 Rocket 3.7 19:00:01 10° SW 19:05:29 52° NW 19:11:01 10° NNE
GP-B 3.1 19:01:27 10° N 19:05:53 65° E 19:10:18 10° S
Cosmos 1602 4.1 19:03:21 10° SSE 19:07:06 44° E 19:10:52 10° NNE
SPOT 3 Rocket 4.2 19:02:51 10° S 19:07:58 58° WSW 19:13:06 10° NNW
USA 238 DEB 3.6 19:02:19 10° SSW 19:08:56 71° SE 19:15:52 10° NE
USA 238 3.6 19:02:25 10° SSW 19:09:02 71° SE 19:15:58 10° NE
COSMOS 2428 4.3 19:05:53 10° NNW 19:10:33 25° NE 19:15:13 10° E
Cosmos 1867 3.8 19:05:31 10° SW 19:10:59 78° NW 19:16:29 10° NE
Cosmos 1933 Rocket 3.7 19:07:18 10° S 19:11:37 54° E 19:15:59 10° NNE
Cosmos 1666 Rocket 4.3 19:07:54 10° SSW 19:12:09 55° WNW 19:16:27 10° N
CENTAUR R/B 2.7 19:06:46 10° SSW 19:12:33 51° ESE 19:19:24 10° NE
Cosmos 1814 Rocket 4.5 19:07:32 10° NNW 19:12:36 48° ENE 19:16:43 15° SE
Cosmos 2237 Rocket 4.4 19:11:05 10° NNW 19:14:35 16° NNE 19:18:05 10° ENE
Cosmos 1954 Rocket 4.2 19:09:57 10° SSW 19:15:17 80° WNW 19:20:39 10° NNE
Meteor 1-20 Rocket 4.3 19:09:47 10° S 19:15:36 77° E 19:21:28 10° NNE
Spot 2 Rocket 3.5 19:11:05 11° SSE 19:15:53 70° ENE 19:20:59 10° NNW
Cosmos 405 Rocket 2.6 19:16:13 10° S 19:19:54 68° E 19:23:41 10° NNE
Okean 1-7 3.1 19:17:24 10° N 19:21:42 62° ENE 19:25:00 16° SSE
Cosmos 1515 3.7 19:18:00 10° N 19:21:50 65° ENE 19:24:41 17° SSE
Cosmos 1741 Rocket 4.1 19:18:01 10° S 19:23:07 53° ESE 19:28:17 10° NNE
Cosmos 1869 Rocket 4.5 19:20:37 17° SE 19:23:22 32° E 19:27:21 10° NNE
Cosmos 1763 Rocket 3.8 19:23:10 10° NNW 19:28:29 68° WSW 19:33:12 13° S
Cosmos 2333 Rocket 3.4 19:23:40 10° NNW 19:28:54 33° NE 19:33:20 13° ESE
Cosmos 1437 Rocket 2.6 19:25:17 10° NNW 19:29:06 86° ENE 19:31:55 17° SSE
Cosmos 1570 Rocket 4.1 19:25:11 10° NNW 19:30:33 77° ENE 19:34:32 18° SSE
Cosmos 1703 Rocket 3.5 19:27:21 10° N 19:31:45 85° E 19:35:10 16° SSE
FALCON 9 DEB 3.2 19:29:35 10° W 19:33:06 80° N 19:36:21 12° E
H-2A R/B 3.4 19:29:16 10° NNE 19:33:24 75° ESE 19:37:33 10° S
OBJECT-B 3.5 19:32:28 10° SW 19:34:51 18° W 19:37:14 10° NW
Cosmos 2084 Rocket 3.4 19:33:20 10° SSW 19:37:29 59° SE 19:41:44 10° NE
Landsat 7 4.0 19:36:27 14° S 19:40:34 75° WSW 19:45:22 10° NNW
SPOT 5 2.9 19:38:25 22° SE 19:41:04 55° ENE 19:45:27 10° N
Cosmos 2208 Rocket 4.0 19:36:40 10° NNW 19:41:58 80° ENE 19:45:27 22° SSE
SWARM A 4.2 19:40:44 10° N 19:44:03 63° E 19:45:36 28° SSE
Meteor 1-11 Rocket 4.5 19:49:18 22° SE 19:52:09 35° E 19:57:22 10° NNE
Okean 1 4.4 19:48:45 10° NNW 19:52:37 44° W 19:56:09 12° SSW
Cosmos 1733 Rocket 4.4 19:52:37 21° ESE 19:53:33 23° E 19:57:00 10° NE
Cosmos 1605 Rocket 4.4 19:47:55 10° SSW 19:53:57 64° WNW 20:00:02 10° N
USA 267 3.5 19:48:54 10° ENE 19:55:07 44° SE 20:01:18 10° SSW
ERBS 3.2 19:52:08 10° WNW 19:55:20 44° NNE 19:57:19 20° E
Cosmos 2100 Rocket 4.0 19:52:15 16° S 19:57:10 64° E 20:03:14 10° NNE
Meteor 2-4 Rocket 3.7 19:53:07 10° NNW 19:58:47 84° W 20:02:35 21° S
NOSS 3-2 (A) 3.9 19:53:16 10° WSW 19:59:10 69° NW 20:06:02 10° NE
Cosmos 2219 Rocket 2.9 19:53:45 10° NNW 19:59:11 44° NE 20:02:41 21° ESE
Lacrosse 4 Rocket 2.5 20:01:22 25° ESE 20:01:22 25° ESE 20:04:35 10° ENE
Cosmos 2173 Rocket 4.0 19:56:36 18° S 20:01:15 64° E 20:07:18 10° NNE
Cosmos 540 Rocket 3.7 19:56:15 10° NNW 20:01:25 68° WSW 20:04:38 23° S
SL-16 R/B 3.0 19:56:57 10° NW 20:02:20 45° WSW 20:06:27 16° S
GENESIS II 4.3 20:00:42 10° NW 20:04:44 72° NE 20:06:20 34° ESE
SL-4 R/B 1.6 20:01:56 10° W 20:05:49 81° S 20:07:24 32° ESE
BREEZE-M DEB (TANK) 3.0 20:03:09 10° W 20:06:21 66° S 20:16:18 10° E
SL-27 R/B 2.6 20:04:28 10° SSW 20:07:42 66° WNW 20:11:01 10° NNE
NOSS 3-2 (C) 3.5 20:03:50 10° SW 20:09:43 82° NW 20:16:36 10° NE
Cosmos 2322 3.8 20:06:50 10° NNW 20:12:31 68° NE 20:15:30 29° SE
BREEZE-M DEB (TANK) 3.7 20:11:38 10° WSW 20:12:31 18° WSW 20:12:31 18° WSW
Cosmos 1725 Rocket 4.4 20:10:38 26° SSE 20:13:52 47° E 20:19:53 10° NNE
Cosmos 1459 Rocket 4.0 20:09:17 18° S 20:14:14 77° E 20:20:37 10° NNE
Cosmos 2082 Rocket 4.1 20:09:21 10° WSW 20:14:25 32° NW 20:19:29 10° NNE
Cosmos 2346 Rocket 4.4 20:09:47 10° N 20:15:52 73° ENE 20:19:13 28° SSE
Cosmos 1242 Rocket 3.1 20:12:37 10° N 20:16:09 45° ENE 20:16:53 39° ESE
Meteor 1-13 Rocket 4.1 20:12:23 10° NNW 20:17:56 88° ENE 20:20:56 28° SSE
SAR-Lupe-2 3.4 20:15:03 10° NNE 20:18:40 74° ESE 20:19:45 42° S
Cosmos 1833 4.4 20:16:17 26° S 20:19:03 47° ESE 20:24:29 10° NE
ERS-1 Rocket 3.3 20:16:15 23° S 20:19:18 63° WSW 20:24:19 10° NNW
Cosmos 2322 Rocket 3.1 20:14:18 10° NW 20:19:37 41° WSW 20:23:14 19° SSW
Cosmos 2016 Rocket 4.1 20:17:44 25° SSE 20:21:29 63° E 20:27:48 10° NNE
Cosmos 2221 Rocket 3.6 20:21:49 10° NNW 20:26:21 87° W 20:28:08 37° S
Cosmos 1378 Rocket 4.3 20:22:25 10° N 20:26:38 39° ENE 20:27:49 33° ESE
Cosmos 841 Rocket 4.4 20:21:59 10° NW 20:26:54 42° WSW 20:29:56 21° SSW
Cosmos 2333 4.2 20:21:36 10° NNW 20:27:28 84° ENE 20:30:11 33° SE
Cosmos 1500 3.5 20:25:35 25° SSW 20:27:34 62° WNW 20:31:19 10° N
Cosmos 1536 3.0 20:27:22 45° SE 20:28:00 50° E 20:31:52 10° NNE
Cosmos 2360 Rocket 2.5 20:23:24 10° NW 20:28:59 59° WSW 20:31:48 29° S
Terra 1.9 20:27:56 32° S 20:30:06 75° WSW 20:34:55 10° NNW
SL-16 R/B 4.3 20:26:15 10° NNW 20:30:19 19° NNE 20:34:22 10° ENE
Okean 3 3.7 20:26:03 10° NNW 20:30:20 65° W 20:32:07 33° SSW
MOS 1-B Rocket 4.5 20:25:58 10° NNE 20:31:08 36° E 20:32:39 31° SE
USA 234 3.3 20:29:00 29° SE 20:32:36 70° SSW 20:39:09 10° WNW
ATLAS 3B R/B 2.5 20:28:13 10° SSW 20:34:44 67° SE 20:41:22 10° NE
Cosmos 1864 Rocket 4.5 20:32:38 30° SSE 20:35:51 67° E 20:42:06 10° NNE
Cosmos 1666 2.5 20:37:36 57° S 20:38:17 80° E 20:42:05 10° NNE
COSMOS 2487 2.7 20:39:02 51° E 20:39:02 51° E 20:42:03 10° NNE
Lacrosse 5 4.1 20:37:43 10° W 20:39:59 13° WSW 20:41:50 11° SW
Resurs 01 Rocket 4.4 20:38:49 10° WSW 20:40:14 11° W 20:41:41 10° WNW
Iridium 4 Rocket 3.1 20:38:44 35° SSW 20:40:26 71° W 20:44:36 10° N
Cosmos 1378 3.3 20:42:41 10° N 20:46:23 54° ENE 20:46:40 52° E
Cosmos 1975 Rocket 4.5 20:45:22 10° N 20:49:11 26° ENE 20:50:09 24° E
Cosmos 2297 Rocket 4.3 20:50:24 11° E 20:50:24 11° E 20:51:43 10° ENE
Cosmos 2233 Rocket 4.2 20:49:34 36° SSE 20:52:03 58° E 20:58:14 10° NNE
Thor Agena Rocket 4.3 20:49:17 10° NNE 20:53:55 33° E 20:54:28 32° ESE
Cosmos 2061 Rocket 4.0 20:50:45 26° SSW 20:54:28 82° W 21:00:43 10° N
COSMOS 2428 2.7 20:49:54 10° NNW 20:55:40 85° ENE 20:57:48 41° SE
Okean 2 4.2 20:54:06 10° N 20:57:57 36° ENE 20:58:24 35° E
MTI 4.3 20:55:36 10° NNE 20:58:03 49° NE 20:58:03 49° NE
Cosmos 1802 Rocket 4.3 20:54:58 20° SSW 20:59:34 67° WNW 21:05:52 10° N
Cosmos 1743 3.2 21:00:17 44° E 21:00:17 44° E 21:03:49 10° NNE
Cosmos 1975 4.3 21:00:29 24° ENE 21:00:29 24° ENE 21:03:23 10° NE
Cosmos 2237 Rocket 2.9 20:54:43 10° NNW 21:00:10 45° NE 21:02:47 28° ESE
Cosmos 44 Rocket 3.3 20:58:02 10° NW 21:03:01 73° SW 21:04:15 50° SSE
CENTAUR R/B 3.4 20:57:01 10° WSW 21:03:15 56° NNW 21:10:42 10° NE
NOSS 0 Rocket 4.1 20:58:56 10° NNW 21:05:12 69° NE 21:07:52 36° SE
Cosmos 1271 Rocket 2.5 21:05:26 10° NNW 21:09:16 86° ENE 21:09:24 83° SE
FALCON 9 DEB 3.5 21:06:42 10° WNW 21:09:36 58° W 21:09:36 58° W
Cosmos 1674 Rocket 3.7 21:08:48 10° NNW 21:13:07 64° W 21:13:54 52° SW
Cosmos 2333 Rocket 2.4 21:07:51 10° NW 21:13:35 63° WSW 21:15:19 43° S
ATLAS 5 CENTAUR R/B 3.1 21:11:39 10° WNW 21:14:35 38° SW 21:14:58 37° SSW
Cosmos 1503 Rocket 4.2 21:17:56 48° SE 21:18:41 53° ESE 21:23:54 10° NNE
Geosat 3.9 21:18:02 51° SE 21:19:22 84° ENE 21:24:26 10° NNW
Cosmos 1486 Rocket 3.9 21:22:07 44° SSW 21:23:49 90° WNW 21:29:04 10° NNE
Meteor 2-11 Rocket 4.4 21:22:23 45° SSE 21:24:16 70° E 21:30:22 10° NNE
BREEZE-M DEB (TANK) 4.2 21:15:24 10° W 21:27:58 48° SSW 21:28:58 44° S
DNEPR-1 R/B 4.4 21:22:15 10° NW 21:28:27 65° NE 21:30:25 38° ESE
Cosmos 1733 Rocket 3.8 21:29:41 35° WSW 21:31:04 47° WNW 21:35:23 10° N
ERBS 3.9 21:28:27 10° WNW 21:30:13 27° W 21:30:13 27° W
Cosmos 773 Rocket 4.0 21:31:17 10° NNW 21:36:28 73° ENE 21:37:32 54° SE
USA 267 3.2 21:31:57 10° ENE 21:38:31 85° NNW 21:45:05 10° WSW
Cosmos 968 Rocket 3.4 21:37:25 46° SW 21:38:58 80° WNW 21:44:09 10° NNE
Lacrosse 4 Rocket 2.2 21:37:37 28° WSW 21:39:34 50° NW 21:43:39 10° NNE
ALOS 2 2.5 21:39:37 68° ESE 21:39:58 74° ENE 21:44:23 10° N
Cosmos 2227 Rocket 3.5 21:40:11 24° E 21:40:11 24° E 21:44:27 10° NE
Helios 1A 4.1 21:41:31 33° E 21:42:05 34° ENE 21:45:55 10° N
Cosmos 2219 Rocket 2.8 21:37:50 10° NW 21:43:12 43° WSW 21:44:23 38° SW
SL-4 R/B 3.8 21:41:42 10° W 21:42:58 19° W 21:42:58 19° W
Cosmos 1707 3.7 21:43:01 10° N 21:46:37 39° ENE 21:46:37 39° ENE
EO 1 Del DPAF 3.4 21:49:50 10° NNE 21:53:12 69° NNE 21:53:12 69° NNE
Cosmos 1538 Rocket 4.1 21:48:59 10° NNW 21:54:10 67° ENE 21:55:15 52° ESE
Cosmos 1782 Rocket 3.4 21:58:07 81° E 21:58:07 81° E 22:02:29 10° NNE
Spot 4 4.4 21:58:19 42° WSW 21:58:57 45° W 22:03:37 10° NNW
Cosmos 1607 4.1 21:54:05 10° NW 22:00:33 75° NE 22:03:21 36° ESE
Cosmos 1842 3.7 21:58:18 10° NNW 22:01:52 55° WNW 22:01:52 55° WNW
Cosmos 1908 Rocket 4.0 22:04:49 49° W 22:05:20 52° WNW 22:09:37 10° N
Terra 4.3 22:07:07 10° WSW 22:08:43 12° W 22:10:20 10° WNW
Cosmos 2344 4.2 22:00:05 10° NW 22:09:13 85° SW 22:17:17 26° SE
SL-16 R/B 2.6 22:10:00 10° NNW 22:15:40 60° NE 22:17:41 38° ESE
SL-16 R/B 4.4 22:11:21 10° E 22:16:04 23° NE 22:20:46 10° N
USA 234 4.3 22:16:20 26° SW 22:16:25 26° SW 22:21:43 10° WNW
Helios 1B rocket 4.4 22:15:30 10° NE 22:18:00 18° E 22:18:00 18° E
Cosmos 1354 Rocket 4.4 22:23:57 40° WSW 22:25:37 59° WNW 22:30:56 10° NNE
ATLAS 3B R/B 3.6 22:19:27 10° W 22:25:47 46° NNW 22:32:15 10° NE
Cosmos 1975 Rocket 3.8 22:22:58 10° NNW 22:27:14 43° W 22:27:17 43° W
Cosmos 1300 Rocket 3.7 22:28:47 62° E 22:28:47 62° E 22:32:52 10° NNE
SL-24 DEB 4.4 22:24:28 10° N 22:29:12 63° W 22:29:43 58° WSW
Cosmos 2297 Rocket 2.2 22:32:12 57° SSE 22:32:52 62° ESE 22:38:27 10° NE
Thor Agena Rocket 4.3 22:28:31 10° N 22:33:21 44° WNW 22:35:03 33° WSW
Cosmos 1680 Rocket 4.0 22:28:20 10° NNW 22:33:29 53° ENE 22:35:05 38° ESE
In-Cosmos 22 4.0 22:30:19 10° NNW 22:35:54 88° ENE 22:36:51 63° SSE
Cosmos 1975 3.8 22:36:14 37° WNW 22:36:23 37° WNW 22:40:11 10° N
Cosmos 1980 4.2 22:31:08 10° NW 22:36:30 44° WSW 22:36:58 43° WSW
COSMOS 2428 4.3 22:35:12 10° NW 22:39:15 20° W 22:39:48 20° WSW
Cosmos 1777 Rocket 3.9 22:39:10 67° S 22:39:52 83° ESE 22:45:13 10° NNE
Timation 2 Rocket 3.9 22:39:51 46° SW 22:41:47 81° WNW 22:47:49 10° NNE
Cosmos 1025 Rocket 3.0 22:38:28 10° NNW 22:42:31 69° WNW 22:42:31 69° WNW
Cosmos 1634 Rocket 4.4 22:41:33 41° SE 22:43:11 52° E 22:49:10 10° NNE
Cosmos 2237 Rocket 2.7 22:38:58 10° NW 22:44:14 41° WSW 22:44:34 40° WSW
SJ 16-02 2.5 22:47:38 31° E 22:47:38 31° E 22:51:15 10° NE
Cosmos 2219 3.1 22:46:31 60° SSW 22:47:36 86° ESE 22:53:16 10° NNE
Meteor 2-13 Rocket 4.4 22:41:59 10° N 22:48:09 86° E 22:49:46 52° SSE
Cosmos 1464 Rocket 4.3 22:46:11 41° SW 22:48:10 58° WNW 22:54:16 10° N
Okean 1 Rocket 3.9 22:50:07 39° E 22:50:10 39° E 22:54:16 10° NNE
Nadezhda 4 Rocket 4.3 22:47:20 10° NNW 22:53:27 56° W 22:54:56 45° SW
Okean 2 Rocket 3.1 22:53:44 71° W 22:53:54 72° WNW 22:58:26 10° N
Meteor 1-24 Rocket 4.4 22:50:01 10° N 22:55:12 44° ENE 22:57:08 31° ESE
CENTAUR R/B 4.4 22:49:11 10° WNW 22:55:29 36° N 23:02:45 10° ENE
Meteor 1-15 Rocket 4.4 22:55:36 49° SE 22:56:40 57° E 23:02:08 10° NNE
Cosmos 2333 Rocket 4.4 22:54:37 10° WNW 22:56:42 12° W 22:57:19 12° W
Cosmos 1674 3.1 22:53:50 10° N 22:57:04 61° NNE 22:57:04 61° NNE
CZ-2D R/B 4.0 22:59:05 10° NE 23:03:07 20° E 23:05:05 17° ESE
Cosmos 923 Rocket 3.9 23:01:42 10° NNW 23:07:02 73° WSW 23:07:42 64° SSW
Cosmos 1943 4.1 23:08:26 10° NNW 23:13:50 45° NE 23:18:27 14° ESE
Cosmos 1092 Rocket 4.1 23:09:09 10° NNW 23:15:15 60° W 23:16:44 47° SW
NOSS 3-1 (C) 3.8 23:16:43 40° SE 23:17:28 42° ESE 23:23:27 10° NE
Helios 1A 4.2 23:18:09 30° W 23:18:09 30° W 23:21:27 10° NNW
Cosmos 1626 2.7 23:15:04 10° N 23:18:35 52° ENE 23:18:35 52° ENE
Lacrosse 4 Rocket 4.2 23:16:46 10° WNW 23:19:12 15° NNW 23:21:36 10° N
USA 267 3.8 23:14:56 10° ENE 23:21:21 60° N 23:27:45 10° W
Cosmos 2227 Rocket 2.3 23:22:00 48° SW 23:23:35 73° WNW 23:29:17 10° NNE
Cosmos 1733 3.7 23:24:08 51° E 23:24:08 51° E 23:27:42 10° NNE
Cosmos 1461 3.0 23:24:34 70° SE 23:24:34 70° SE 23:29:10 10° NE
MOZ.5/SAFIR/RUBIN 5/SL-8 4.3 23:23:32 40° ESE 23:24:54 56° ENE 23:29:33 10° N
Cosmos 1766 3.5 23:26:28 63° ENE 23:26:28 63° ENE 23:30:06 10° NNE
Cosmos 1892 Rocket 4.0 23:22:38 10° N 23:27:03 58° ENE 23:27:50 49° ESE
Cosmos 2151 Rocket 4.0 23:26:48 47° W 23:27:05 48° WNW 23:31:23 10° N
Cosmos 2098 Rocket 4.5 23:23:03 10° N 23:28:28 52° ENE 23:32:02 26° SE
Resurs 1-4 Rocket 3.3 23:29:01 10° NNE 23:33:47 33° E 23:35:32 26° SE
Meteor 2-5 Rocket 3.6 23:29:58 10° NNW 23:35:35 76° W 23:36:52 53° S
Landsat 4 4.2 23:32:17 10° N 23:35:51 51° WNW 23:35:51 51° WNW
Meteor 1-22 Rocket 4.4 23:34:56 44° SSE 23:36:17 58° E 23:41:37 10° NNE
UNK 4.4 23:35:51 33° SE 23:37:36 52° ENE 23:42:10 10° N
Cosmos 1470 4.0 23:39:13 30° ESE 23:39:44 31° E 23:43:18 10° NNE
Cosmos 1805 3.3 23:45:52 65° WNW 23:45:52 65° WNW 23:49:39 10° N
Cosmos 158 Rocket 4.4 23:41:01 10° NW 23:46:10 47° WSW 23:46:39 46° WSW
Spot 1 3.8 23:49:42 74° SSE 23:50:03 88° ENE 23:54:10 10° NNW
Cosmos 2082 3.7 23:48:47 46° SW 23:50:29 77° WNW 23:56:08 10° NNE
Cosmos 1937 Rocket 3.9 23:49:29 43° SSE 23:50:50 55° ESE 23:56:02 10° NNE
Cosmos 990 Rocket 3.9 23:50:28 54° S 23:51:38 77° ESE 23:56:49 10° NNE
DELTA 2 DEB (DPAF) 4.1 23:52:22 57° SSE 23:53:15 85° ENE 23:57:44 10° NNW
Helios 1B rocket 2.6 23:49:57 10° N 23:53:59 56° WNW 23:54:18 54° W
PSLV R/B 4.5 23:49:34 10° N 23:54:03 43° WNW 23:55:06 38° W
